| time (UTC) | temp F | wind direction | speed MPH | gust MPH | rain 1hr in | rain 24hr in | rain mn in | humidity % | barometer mb |
| 20260510224606 | 57 | 326 | 2.0 | 9.0 | 0.00 | 0.00 | 0.00 | 36 | 1019.0 |
| 20260510223103 | 57 | 298 | 4.0 | 11.0 | 0.00 | 0.00 | 0.00 | 36 | 1019.1 |
| 20260510221559 | 58 | 346 | 2.0 | 8.0 | 0.00 | 0.00 | 0.00 | 37 | 1019.0 |
| 20260510220100 | 57 | 317 | 4.0 | 11.0 | 0.00 | 0.00 | 0.00 | 35 | 1018.9 |
| 20260510214557 | 58 | 348 | 4.0 | 15.0 | 0.00 | 0.00 | 0.00 | 37 | 1018.7 |
| 20260510213103 | 60 | 338 | 5.0 | 15.0 | 0.00 | 0.00 | 0.00 | 36 | 1018.5 |
| 20260510211604 | 60 | 344 | 4.0 | 16.0 | 0.00 | 0.00 | 0.00 | 35 | 1018.3 |
| 20260510210058 | 61 | 244 | 2.0 | 11.0 | 0.00 | 0.00 | 0.00 | 36 | 1018.2 |
| 20260510204604 | 60 | 34 | 2.0 | 13.0 | 0.00 | 0.00 | 0.00 | 34 | 1018.2 |
| 20260510203056 | 58 | 290 | 5.0 | 14.0 | 0.00 | 0.00 | 0.00 | 36 | 1018.3 |
| 20260510201559 | 59 | 275 | 1.0 | 14.0 | 0.00 | 0.00 | 0.00 | 35 | 1018.4 |
| 20260510200111 | 60 | 73 | 2.0 | 9.0 | 0.00 | 0.00 | 0.00 | 42 | 1018.6 |
| 20260510194609 | 59 | 293 | 4.0 | 11.0 | 0.00 | 0.00 | 0.00 | 35 | 1018.7 |
| 20260510193114 | 58 | 5 | 3.0 | 13.0 | 0.00 | 0.00 | 0.00 | 35 | 1018.8 |
| 20260510191602 | 60 | 327 | 3.0 | 9.0 | 0.00 | 0.00 | 0.00 | 38 | 1018.8 |
| 20260510190057 | 59 | 319 | 3.0 | 10.0 | 0.00 | 0.00 | 0.00 | 37 | 1018.9 |
| 20260510184602 | 59 | 295 | 4.0 | 13.0 | 0.00 | 0.05 | 0.00 | 32 | 1018.8 |
| 20260510183057 | 60 | 315 | 3.0 | 12.0 | 0.00 | 0.05 | 0.00 | 32 | 1018.7 |
| 20260510181555 | 59 | 265 | 4.0 | 13.0 | 0.00 | 0.05 | 0.00 | 33 | 1018.7 |
| 20260510180105 | 59 | 322 | 2.0 | 11.0 | 0.00 | 0.05 | 0.00 | 42 | 1018.6 |
| 20260510174605 | 58 | 338 | 4.0 | 10.0 | 0.00 | 0.05 | 0.00 | 36 | 1018.4 |
| 20260510173104 | 58 | 313 | 5.0 | 11.0 | 0.00 | 0.05 | 0.00 | 37 | 1018.6 |
| 20260510171559 | 58 | 37 | 3.0 | 10.0 | 0.00 | 0.05 | 0.00 | 35 | 1018.7 |
| 20260510170100 | 57 | 273 | 2.0 | 8.0 | 0.00 | 0.05 | 0.00 | 38 | 1018.7 |
| 20260510164609 | 56 | 329 | 2.0 | 8.0 | 0.00 | 0.05 | 0.00 | 36 | 1018.8 |
| 20260510163102 | 55 | 350 | 4.0 | 12.0 | 0.00 | 0.05 | 0.00 | 37 | 1018.9 |
| 20260510161558 | 55 | 343 | 6.0 | 14.0 | 0.00 | 0.05 | 0.00 | 39 | 1018.8 |
| 20260510160059 | 54 | 349 | 4.0 | 11.0 | 0.00 | 0.05 | 0.00 | 40 | 1018.7 |
| 20260510154602 | 54 | 284 | 4.0 | 14.0 | 0.00 | 0.05 | 0.00 | 40 | 1018.6 |
| 20260510153059 | 53 | 297 | 3.0 | 9.0 | 0.00 | 0.05 | 0.00 | 41 | 1018.4 |
| 20260510151557 | 53 | 54 | 3.0 | 9.0 | 0.00 | 0.05 | 0.00 | 46 | 1018.2 |
| 20260510150123 | 52 | 307 | 2.0 | 11.0 | 0.00 | 0.05 | 0.00 | 47 | 1018.1 |
| 20260510144624 | 52 | 55 | 3.0 | 8.0 | 0.00 | 0.05 | 0.00 | 46 | 1018.0 |
| 20260510143058 | 51 | 263 | 3.0 | 9.0 | 0.00 | 0.05 | 0.00 | 51 | 1017.8 |
| 20260510141556 | 50 | 296 | 3.0 | 8.0 | 0.00 | 0.05 | 0.00 | 53 | 1017.8 |
| 20260510134608 | 49 | 0 | 2.0 | 10.0 | 0.00 | 0.05 | 0.00 | 53 | 1017.6 |
| 20260510133103 | 48 | 350 | 3.0 | 8.0 | 0.00 | 0.05 | 0.00 | 53 | 1017.6 |
| 20260510131601 | 47 | 5 | 2.0 | 4.0 | 0.00 | 0.05 | 0.00 | 59 | 1017.5 |
| 20260510130058 | 46 | 330 | 1.0 | 4.0 | 0.00 | 0.05 | 0.00 | 59 | 1017.4 |
| 20260510124602 | 45 | 0 | 1.0 | 5.0 | 0.00 | 0.05 | 0.00 | 59 | 1017.3 |
| 20260510123057 | 45 | 336 | 1.0 | 6.0 | 0.00 | 0.05 | 0.00 | 63 | 1017.1 |
| 20260510121602 | 44 | 355 | 1.0 | 5.0 | 0.00 | 0.05 | 0.00 | 65 | 1016.8 |
| 20260510120057 | 42 | 22 | 1.0 | 6.0 | 0.00 | 0.05 | 0.00 | 70 | 1016.8 |
| 20260510114617 | 39 | 349 | 0.0 | 4.0 | 0.00 | 0.05 | 0.00 | 76 | 1016.5 |
| 20260510113103 | 37 | 0 | 0.0 | 3.0 | 0.00 | 0.05 | 0.00 | 78 | 1016.3 |
| 20260510111559 | 37 | 340 | 0.0 | 2.0 | 0.00 | 0.05 | 0.00 | 78 | 1016.2 |
| 20260510110059 | 37 | 0 | 0.0 | 1.0 | 0.00 | 0.05 | 0.00 | 77 | 1015.9 |
| 20260510104615 | 37 | 0 | 0.0 | 1.0 | 0.00 | 0.05 | 0.00 | 76 | 1015.8 |
| 20260510103101 | 38 | 0 | 0.0 | 0.0 | 0.00 | 0.05 | 0.00 | 74 | 1015.5 |
| 20260510101609 | 38 | 0 | 0.0 | 1.0 | 0.00 | 0.05 | 0.00 | 71 | 1015.4 |
| 20260510100105 | 39 | 340 | 0.0 | 1.0 | 0.00 | 0.05 | 0.00 | 69 | 1015.4 |
| 20260510094605 | 40 | 0 | 0.0 | 1.0 | 0.00 | 0.05 | 0.00 | 67 | 1015.2 |
| 20260510093101 | 41 | 0 | 0.0 | 2.0 | 0.00 | 0.05 | 0.00 | 66 | 1015.0 |
| 20260510091558 | 42 | 0 | 0.0 | 3.0 | 0.00 | 0.05 | 0.00 | 64 | 1014.7 |
| 20260510090111 | 43 | 5 | 2.0 | 6.0 | 0.00 | 0.05 | 0.00 | 63 | 1014.5 |
| 20260510084556 | 43 | 327 | 2.0 | 8.0 | 0.00 | 0.05 | 0.00 | 63 | 1014.4 |
| 20260510083057 | 44 | 352 | 3.0 | 9.0 | 0.00 | 0.05 | 0.00 | 63 | 1014.0 |
| 20260510081557 | 44 | 327 | 2.0 | 11.0 | 0.00 | 0.05 | 0.00 | 62 | 1013.7 |
| 20260510080100 | 45 | 11 | 2.0 | 12.0 | 0.00 | 0.05 | 0.00 | 61 | 1013.5 |
| 20260510074605 | 45 | 352 | 4.0 | 11.0 | 0.00 | 0.05 | 0.00 | 63 | 1013.1 |
| 20260510073059 | 46 | 327 | 3.0 | 8.0 | 0.00 | 0.05 | 0.00 | 65 | 1012.9 |
| 20260510071604 | 46 | 5 | 2.0 | 7.0 | 0.00 | 0.05 | 0.00 | 65 | 1012.6 |
| 20260510070109 | 47 | 25 | 2.0 | 10.0 | 0.00 | 0.05 | 0.00 | 64 | 1012.5 |
| 20260510064603 | 47 | 352 | 2.0 | 11.0 | 0.00 | 0.05 | 0.00 | 65 | 1012.4 |
| 20260510063102 | 46 | 360 | 1.0 | 6.0 | 0.00 | 0.05 | 0.00 | 70 | 1012.2 |
| 20260510061601 | 47 | 360 | 0.0 | 3.0 | 0.00 | 0.05 | 0.00 | 70 | 1012.0 |
| 20260510054602 | 47 | 0 | 0.0 | 2.0 | 0.00 | 0.05 | 0.00 | 72 | 1011.6 |
| 20260510053055 | 47 | 349 | 1.0 | 3.0 | 0.00 | 0.05 | 0.00 | 72 | 1011.3 |
| 20260510051555 | 47 | 352 | 1.0 | 3.0 | 0.00 | 0.05 | 0.00 | 71 | 1011.0 |
| 20260510050059 | 48 | 348 | 0.0 | 2.0 | 0.00 | 0.05 | 0.00 | 69 | 1010.6 |
| 20260510044606 | 49 | 339 | 0.0 | 2.0 | 0.00 | 0.05 | 0.00 | 68 | 1010.4 |
| 20260510043106 | 50 | 360 | 1.0 | 2.0 | 0.00 | 0.05 | 0.00 | 66 | 1010.1 |
| 20260510041559 | 51 | 330 | 0.0 | 2.0 | 0.00 | 0.05 | 0.00 | 64 | 1010.0 |
| 20260510040058 | 52 | 0 | 0.0 | 2.0 | 0.00 | 0.05 | 0.00 | 61 | 1009.9 |
| 20260510034557 | 53 | 0 | 1.0 | 3.0 | 0.00 | 0.05 | 0.05 | 59 | 1009.7 |
| 20260510033121 | 54 | 355 | 1.0 | 4.0 | 0.00 | 0.05 | 0.05 | 57 | 1009.5 |
| 20260510031622 | 55 | 348 | 2.0 | 12.0 | 0.00 | 0.05 | 0.05 | 55 | 1009.4 |
| 20260510030059 | 56 | 346 | 3.0 | 8.0 | 0.00 | 0.05 | 0.05 | 52 | 1009.1 |
| 20260510024559 | 56 | 340 | 1.0 | 9.0 | 0.00 | 0.05 | 0.05 | 52 | 1008.9 |
| 20260510023057 | 57 | 352 | 3.0 | 6.0 | 0.00 | 0.05 | 0.05 | 50 | 1008.7 |
| 20260510021557 | 58 | 355 | 4.0 | 11.0 | 0.00 | 0.05 | 0.05 | 50 | 1008.3 |
| 20260510020058 | 59 | 355 | 5.0 | 18.0 | 0.00 | 0.05 | 0.05 | 47 | 1008.0 |
| 20260510014607 | 60 | 355 | 4.0 | 14.0 | 0.00 | 0.05 | 0.05 | 48 | 1007.5 |
| 20260510013056 | 61 | 5 | 3.0 | 11.0 | 0.00 | 0.05 | 0.05 | 50 | 1006.8 |
| 20260510011559 | 61 | 309 | 2.0 | 11.0 | 0.00 | 0.05 | 0.05 | 52 | 1006.3 |
| 20260510004600 | 61 | 351 | 1.0 | 4.0 | 0.00 | 0.05 | 0.05 | 55 | 1005.6 |
| 20260510003101 | 62 | 0 | 1.0 | 6.0 | 0.00 | 0.05 | 0.05 | 53 | 1005.2 |
| 20260510001556 | 63 | 344 | 2.0 | 5.0 | 0.00 | 0.05 | 0.05 | 51 | 1004.9 |
| 20260510000058 | 63 | 315 | 1.0 | 6.0 | 0.00 | 0.05 | 0.05 | 49 | 1004.7 |
| 20260509234608 | 64 | 317 | 4.0 | 10.0 | 0.00 | 0.05 | 0.05 | 48 | 1004.5 |
| 20260509233057 | 65 | 265 | 3.0 | 16.0 | 0.00 | 0.05 | 0.05 | 46 | 1004.3 |
| 20260509231556 | 65 | 265 | 8.0 | 15.0 | 0.00 | 0.05 | 0.05 | 45 | 1004.3 |